"Pseudo-MPEC" for P21Ok6T

Created 2023 Nov 24 9:22:15 UT using Find_Orb

Click here for an explanation of pseudo-MPECs

 
 Astrometry: 
     P21Ok6T* C2023 11 18q)WdB*][NUy6%LFD!(i,r9wt$Q/'[Gal2)vo$$[;Astrometryw-F52
     P21Ok6T  C2023 11 18;u.wenJXED7v-U#hWdZiH08f5^p1[W'1?$PgN.2Ly.4Uef)7UQ!mF52
     P21Ok6T  C2023 11 18rjc0:uFqWjZ-WcoC5o+I$JjTqy_rl1c/B#*hO`Esu,+^!NMJ4wN^F52
     P21Ok6T  C2023 11 18W8N=RFcccs+AWMJrredacted;LCmX(+41X^E/g)f+v:#(;@k$9QEF52
     P21Ok6T  C2023 11 18KXoC+mj=clickuOQ,-j+=W5]eherex?mm`8qSCforq$f!a3E$/t0F51
     P21Ok6T  C2023 11 18o\!yWj6s/hmV[-HS`lJ?Hjtc$tggnQ6PQk)b[@6D.)jjIw*o!I=kF51
     P21Ok6T KC2023 11 21.43706 07 40 34.32 +18 49 25.9    ~BLDM 22.2 RVNEOCP691
     P21Ok6T KC2023 11 21.45763 07 40 32.20 +18 50 17.4    ~BLDM 22.0 RVNEOCP691
     P21Ok6T KC2023 11 22xIrGj@y'K*rTm.N],7@-[00X:%3v$explanationpV(hWrbVy3;L204

Station data:
(204) Schiaparelli Observatory  (N45.867930 E8.770800)  Italy.  Observer L.
   Buzzi. 0.60-m f/4.64 Newtonian + CCD0.84-m f/3.5 reflector + CCD.
(691) Steward Observatory, Kitt Peak - Spacewatch  (N31.962174 W111.600327)
   US/Arizona.  Observer J. V. Scotti. 0.9-m f/3 reflector + CCD.
(F51) Pan-STARRS 1, Haleakala  (N20.707234 W156.255910)  US/Hawaii.
   Observers J. Bulger, T. Lowe, A. Schultz, M. Willman. Measurers K.
   Chambers, S. Chastel, T. de Boer, L. Denneau, J. Fairlamb, H. Flewelling,
   M. Huber, C.-C. Lin, E. Magnier, Y. Ramanjooloo, R. Wainscoat, R. Weryk.
   1.8-m Ritchey-Chrétien + CCD.
(F52) Pan-STARRS 2, Haleakala  (N20.707382 W156.255910)  US/Hawaii.
   Observers J. Bulger, T. Dukes, T. Lowe, A. Schultz, M. Willman. Measurers
   K. Chambers, S. Chastel, T. de Boer, L. Denneau, J. Fairlamb, H.
   Flewelling, M. Huber, C.-C. Lin, E. Magnier, Y. Ramanjooloo, R. Wainscoat,
   R. Weryk. 1.8-m Ritchey-Chrétien + CCD.

Orbital elements:  P21Ok6T
   Perihelion 2023 Aug 9.95475 +/- 0.359 TT = 22:54:50 (JD 2460166.45475)
Epoch 2023 Nov 22.0 TT = JDT 2460270.5   Earth MOID: 0.0471      AutoNEOCP
M  90.81152633 +/- 0.58             (J2000 ecliptic)
n   0.87280802 +/- 0.00269          Peri.  242.81725 +/- 0.46
a   1.08440179 +/- 0.00223          Node    71.08147 +/- 0.054
e   0.2138469 +/- 0.00148           Incl.    9.66322 +/- 0.08
P   1.13/412.45d           H 23.00  G  0.15   U  8.8
q 0.85250575 +/- 0.00144    Q 1.31629782 +/- 0.00393
From 9 observations 2023 Nov. 18-22; mean residual 0".14
Residuals in arcseconds: 
231118 F52  .04+  .09+    231118 F52  .08-  .30-    231121 691  .03-  .12+    
231118 F52  .04+  .06-    231118 F51  .02-  .15+    231121 691  .15+  .34-    
231118 F52  .03-  .08-    231118 F51  .04+  .13+    231122 204  .08-  .11+    

Ephemerides (geocentric):
Date (UTC) HH   RA             Dec           delta  r     elong  mag " sig PA
---- --------  ------------   ------------  ------ ------ -----  --- --------
2023 11 24 09  07 35 42.112   +20 55 22.38  .22552 1.1434 129.2 21.7 1.01 130
2023 11 24 10  07 35 37.535   +20 57 11.39  .22549 1.1435 129.3 21.7 1.03 130
2023 11 24 11  07 35 32.945   +20 59 00.46  .22545 1.1436 129.3 21.7 1.05 129
2023 11 24 12  07 35 28.343   +21 00 49.58  .22541 1.1438 129.4 21.7 1.08 129
2023 11 24 13  07 35 23.729   +21 02 38.74  .22538 1.1439 129.5 21.7 1.10 129
2023 11 24 14  07 35 19.101   +21 04 27.96  .22534 1.1441 129.5 21.7 1.13 129
2023 11 24 15  07 35 14.462   +21 06 17.23  .22530 1.1442 129.6 21.7 1.15 129
2023 11 24 16  07 35 09.810   +21 08 06.54  .22527 1.1443 129.7 21.7 1.18 129
2023 11 24 17  07 35 05.145   +21 09 55.90  .22523 1.1445 129.7 21.7 1.20 128
2023 11 24 18  07 35 00.467   +21 11 45.32  .22519 1.1446 129.8 21.7 1.23 128
2023 11 24 19  07 34 55.777   +21 13 34.78  .22516 1.1447 129.9 21.7 1.25 128
2023 11 24 20  07 34 51.075   +21 15 24.29  .22512 1.1449 129.9 21.7 1.28 128
2023 11 24 21  07 34 46.360   +21 17 13.85  .22509 1.1450 130.0 21.7 1.30 128
2023 11 24 22  07 34 41.632   +21 19 03.45  .22505 1.1451 130.1 21.7 1.33 128
2023 11 24 23  07 34 36.891   +21 20 53.11  .22502 1.1453 130.1 21.7 1.36 128
2023 11 25 00  07 34 32.138   +21 22 42.81  .22498 1.1454 130.2 21.7 1.39 128
2023 11 25 01  07 34 27.373   +21 24 32.56  .22495 1.1455 130.3 21.7 1.41 127
2023 11 25 02  07 34 22.594   +21 26 22.35  .22491 1.1457 130.3 21.7 1.44 127
2023 11 25 03  07 34 17.803   +21 28 12.20  .22488 1.1458 130.4 21.7 1.47 127
2023 11 25 04  07 34 12.999   +21 30 02.08  .22484 1.1459 130.5 21.7 1.50 127
2023 11 25 05  07 34 08.183   +21 31 52.02  .22481 1.1461 130.5 21.7 1.53 127
2023 11 25 06  07 34 03.354   +21 33 42.00  .22477 1.1462 130.6 21.7 1.56 127
2023 11 25 07  07 33 58.512   +21 35 32.03  .22474 1.1463 130.7 21.7 1.58 127
2023 11 25 08  07 33 53.657   +21 37 22.10  .22470 1.1465 130.7 21.7 1.61 127
2023 11 25 09  07 33 48.790   +21 39 12.22  .22467 1.1466 130.8 21.7 1.64 127
2023 11 25 10  07 33 43.910   +21 41 02.38  .22464 1.1467 130.8 21.7 1.67 126
2023 11 25 11  07 33 39.017   +21 42 52.59  .22460 1.1469 130.9 21.7 1.70 126
2023 11 25 12  07 33 34.111   +21 44 42.84  .22457 1.1470 131.0 21.7 1.73 126
2023 11 25 13  07 33 29.193   +21 46 33.13  .22453 1.1471 131.0 21.7 1.77 126
2023 11 25 14  07 33 24.262   +21 48 23.47  .22450 1.1473 131.1 21.6 1.80 126
2023 11 25 15  07 33 19.318   +21 50 13.86  .22447 1.1474 131.2 21.6 1.83 126
2023 11 25 16  07 33 14.361   +21 52 04.29  .22443 1.1475 131.2 21.6 1.86 126
2023 11 25 17  07 33 09.391   +21 53 54.76  .22440 1.1477 131.3 21.6 1.89 126
2023 11 25 18  07 33 04.409   +21 55 45.27  .22437 1.1478 131.4 21.6 1.92 126
2023 11 25 19  07 32 59.414   +21 57 35.83  .22434 1.1479 131.4 21.6 1.96 126
2023 11 25 20  07 32 54.406   +21 59 26.43  .22430 1.1481 131.5 21.6 1.99 126
2023 11 25 21  07 32 49.385   +22 01 17.07  .22427 1.1482 131.6 21.6 2.02 125
2023 11 25 22  07 32 44.351   +22 03 07.75  .22424 1.1483 131.6 21.6 2.06 125
2023 11 25 23  07 32 39.304   +22 04 58.48  .22421 1.1485 131.7 21.6 2.09 125
2023 11 26 00  07 32 34.245   +22 06 49.24  .22417 1.1486 131.8 21.6 2.12 125
2023 11 26 01  07 32 29.172   +22 08 40.05  .22414 1.1487 131.8 21.6 2.16 125
2023 11 26 02  07 32 24.087   +22 10 30.90  .22411 1.1489 131.9 21.6 2.19 125
2023 11 26 03  07 32 18.989   +22 12 21.79  .22408 1.1490 132.0 21.6 2.23 125
2023 11 26 04  07 32 13.878   +22 14 12.72  .22405 1.1491 132.0 21.6 2.26 125
2023 11 26 05  07 32 08.754   +22 16 03.69  .22402 1.1493 132.1 21.6 2.30 125
2023 11 26 06  07 32 03.617   +22 17 54.70  .22399 1.1494 132.2 21.6 2.34 125
2023 11 26 07  07 31 58.467   +22 19 45.75  .22395 1.1495 132.2 21.6 2.37 125
2023 11 26 08  07 31 53.304   +22 21 36.84  .22392 1.1497 132.3 21.6 2.41 125